UKV5122 ENTC-ENAN

Flight info

Callsign UKV5122
Flight time 0h 20m
Altitude 16000
Route GILGU
Aircraft E190/M-SDE3GILORVW/S

Departure

Time 2026-05-05 07:48
Airport Tromsø Airport (ENTC)

Arrival

Time 2026-05-05 08:09
Airport Andøya Airport, Andenes (ENAN)
Time Latitude Longitude Altitude Speed Heading
2026-05-05 07:28 69.68083 18.91011 33 ft 0 kts 283°
2026-05-05 07:39 69.68079 18.91053 33 ft 4 kts 281°
2026-05-05 07:39 69.68075 18.91129 33 ft 4 kts 276°
2026-05-05 07:40 69.68073 18.91206 33 ft 4 kts 270°
2026-05-05 07:40 69.68075 18.91282 33 ft 4 kts 250°
2026-05-05 07:40 69.68087 18.91333 33 ft 2 kts 191°
2026-05-05 07:40 69.68092 18.91337 33 ft 0 kts 190°
2026-05-05 07:43 69.68091 18.91336 33 ft 1 kts 190°
2026-05-05 07:43 69.68078 18.91329 33 ft 3 kts 190°
2026-05-05 07:43 69.68047 18.91312 33 ft 6 kts 190°
2026-05-05 07:44 69.67999 18.91283 33 ft 8 kts 194°
2026-05-05 07:44 69.67935 18.91238 33 ft 11 kts 194°
2026-05-05 07:44 69.67856 18.91185 33 ft 13 kts 192°
2026-05-05 07:44 69.67761 18.91125 33 ft 15 kts 192°
2026-05-05 07:45 69.67660 18.91069 33 ft 11 kts 178°
2026-05-05 07:45 69.67634 18.91146 34 ft 0 kts 106°
2026-05-05 07:46 69.67631 18.91179 35 ft 3 kts 105°
2026-05-05 07:46 69.67622 18.91275 35 ft 7 kts 105°
2026-05-05 07:46 69.67593 18.91380 40 ft 9 kts 161°
2026-05-05 07:46 69.67510 18.91342 39 ft 17 kts 193°
2026-05-05 07:47 69.67370 18.91249 35 ft 19 kts 193°
2026-05-05 07:47 69.67262 18.91240 33 ft 11 kts 200°
2026-05-05 07:47 69.67298 18.91188 33 ft 13 kts 37°
2026-05-05 07:47 69.67449 18.91302 37 ft 49 kts 13°
2026-05-05 07:48 69.68020 18.91684 36 ft 118 kts 13°
2026-05-05 07:48 69.68972 18.92334 358 ft 150 kts 13°
2026-05-05 07:48 69.70064 18.93004 961 ft 171 kts 12°
2026-05-05 07:48 69.71246 18.93669 1540 ft 179 kts 12°
2026-05-05 07:49 69.72514 18.94405 1994 ft 193 kts 13°
2026-05-05 07:49 69.73902 18.95291 2350 ft 216 kts 13°
2026-05-05 07:49 69.75386 18.96200 3113 ft 215 kts 13°
2026-05-05 07:49 69.76849 18.96805 3965 ft 213 kts
2026-05-05 07:50 69.78283 18.95618 4595 ft 219 kts 330°
2026-05-05 07:50 69.79407 18.92303 4728 ft 250 kts 296°
2026-05-05 07:50 69.79854 18.87445 5385 ft 250 kts 280°
2026-05-05 07:50 69.80134 18.82465 6036 ft 252 kts 279°
2026-05-05 07:51 69.80420 18.77426 6592 ft 255 kts 279°
2026-05-05 07:51 69.80702 18.72397 7149 ft 258 kts 279°
2026-05-05 07:51 69.80837 18.67160 7489 ft 269 kts 263°
2026-05-05 07:51 69.80176 18.62036 7723 ft 280 kts 234°
2026-05-05 07:52 69.78984 18.57525 8171 ft 284 kts 230°
2026-05-05 07:52 69.77745 18.53058 8719 ft 286 kts 230°
2026-05-05 07:52 69.76517 18.48518 9290 ft 287 kts 231°
2026-05-05 07:52 69.75288 18.43928 9757 ft 295 kts 231°
2026-05-05 07:53 69.73998 18.39145 9964 ft 308 kts 231°
2026-05-05 07:53 69.72664 18.34228 10370 ft 314 kts 231°
2026-05-05 07:53 69.71320 18.29246 10849 ft 315 kts 231°
2026-05-05 07:53 69.69971 18.24255 11344 ft 316 kts 231°
2026-05-05 07:54 69.68616 18.19263 11843 ft 316 kts 231°
2026-05-05 07:54 69.67236 18.14216 11872 ft 321 kts 231°
2026-05-05 07:54 69.65879 18.09311 12457 ft 309 kts 231°
2026-05-05 07:54 69.64548 18.04449 13015 ft 310 kts 231°
2026-05-05 07:55 69.63207 17.99579 13481 ft 312 kts 231°
2026-05-05 07:55 69.61846 17.94665 13854 ft 317 kts 231°
2026-05-05 07:55 69.60456 17.89676 14195 ft 323 kts 231°
2026-05-05 07:55 69.59045 17.84636 14494 ft 328 kts 231°
2026-05-05 07:56 69.57599 17.79495 14256 ft 336 kts 230°
2026-05-05 07:56 69.56130 17.74322 13767 ft 332 kts 230°
2026-05-05 07:56 69.54706 17.69316 13263 ft 317 kts 230°
2026-05-05 07:56 69.53356 17.64558 12849 ft 301 kts 229°
2026-05-05 07:57 69.52052 17.59965 12489 ft 295 kts 230°
2026-05-05 07:57 69.50761 17.55424 12081 ft 294 kts 230°
2026-05-05 07:57 69.49474 17.50903 11705 ft 293 kts 230°
2026-05-05 07:57 69.48147 17.46496 11331 ft 292 kts 226°
2026-05-05 07:58 69.46741 17.42286 10910 ft 294 kts 225°
2026-05-05 07:58 69.45352 17.38150 10531 ft 293 kts 225°
2026-05-05 07:58 69.43955 17.33948 10142 ft 291 kts 226°
2026-05-05 07:58 69.42575 17.29769 9755 ft 289 kts 226°
2026-05-05 07:59 69.41204 17.25604 9356 ft 288 kts 226°
2026-05-05 07:59 69.39840 17.21461 8998 ft 287 kts 225°
2026-05-05 07:59 69.38478 17.17333 8612 ft 287 kts 225°
2026-05-05 07:59 69.37119 17.13219 8215 ft 285 kts 225°
2026-05-05 08:00 69.35768 17.09146 7864 ft 283 kts 226°
2026-05-05 08:00 69.34424 17.05100 7488 ft 281 kts 226°
2026-05-05 08:00 69.33091 17.01094 7107 ft 278 kts 226°
2026-05-05 08:00 69.31780 16.97156 6750 ft 275 kts 227°
2026-05-05 08:01 69.30474 16.93247 6384 ft 272 kts 226°
2026-05-05 08:01 69.29183 16.89390 6012 ft 268 kts 227°
2026-05-05 08:01 69.27930 16.85652 5662 ft 265 kts 227°
2026-05-05 08:01 69.26673 16.81903 5366 ft 260 kts 226°
2026-05-05 08:02 69.25472 16.78337 5415 ft 246 kts 226°
2026-05-05 08:02 69.24282 16.74801 5115 ft 253 kts 226°
2026-05-05 08:02 69.23067 16.71204 4753 ft 253 kts 226°
2026-05-05 08:02 69.21914 16.67793 4437 ft 251 kts 226°
2026-05-05 08:03 69.20784 16.64457 4117 ft 250 kts 226°
2026-05-05 08:03 69.19598 16.60962 3783 ft 248 kts 226°
2026-05-05 08:03 69.18419 16.57461 3459 ft 246 kts 229°
2026-05-05 08:03 69.17477 16.53566 3122 ft 236 kts 242°
2026-05-05 08:04 69.16749 16.49581 2831 ft 223 kts 243°
2026-05-05 08:04 69.16043 16.45813 2639 ft 213 kts 242°
2026-05-05 08:04 69.15535 16.42129 2424 ft 202 kts 262°
2026-05-05 08:04 69.15661 16.38425 2296 ft 188 kts 292°
2026-05-05 08:05 69.16385 16.35487 2222 ft 184 kts 321°
2026-05-05 08:05 69.17454 16.33495 2118 ft 185 kts 331°
2026-05-05 08:05 69.18577 16.31768 1949 ft 183 kts 333°
2026-05-05 08:05 69.19681 16.30075 1814 ft 179 kts 334°
2026-05-05 08:06 69.20718 16.28408 1725 ft 166 kts 335°
2026-05-05 08:06 69.21685 16.26813 1583 ft 156 kts 335°
2026-05-05 08:06 69.22590 16.25304 1499 ft 146 kts 335°
2026-05-05 08:06 69.23435 16.23893 1447 ft 138 kts 336°
2026-05-05 08:07 69.24259 16.22558 1228 ft 136 kts 336°
2026-05-05 08:07 69.25061 16.21259 971 ft 130 kts 337°
2026-05-05 08:07 69.25836 16.20001 726 ft 127 kts 336°
2026-05-05 08:07 69.26620 16.18679 582 ft 127 kts 333°
2026-05-05 08:08 69.27385 16.17426 414 ft 128 kts 336°
2026-05-05 08:08 69.28161 16.16154 244 ft 129 kts 336°
2026-05-05 08:08 69.28942 16.14887 47 ft 127 kts 335°
2026-05-05 08:08 69.29606 16.13812 28 ft 88 kts 330°
2026-05-05 08:09 69.29977 16.13196 25 ft 30 kts 330°
2026-05-05 08:09 69.30091 16.13161 25 ft 14 kts 49°
2026-05-05 08:09 69.30138 16.13361 24 ft 8 kts 40°
2026-05-05 08:09 69.30192 16.13327 24 ft 9 kts 330°
2026-05-05 08:10 69.30252 16.13228 22 ft 11 kts 330°
2026-05-05 08:10 69.30326 16.13108 23 ft 13 kts 329°
2026-05-05 08:10 69.30411 16.12966 22 ft 15 kts 329°
2026-05-05 08:10 69.30509 16.12807 22 ft 17 kts 330°
2026-05-05 08:11 69.30624 16.12697 21 ft 18 kts
2026-05-05 08:11 69.30732 16.12839 19 ft 14 kts 30°
2026-05-05 08:11 69.30818 16.12981 18 ft 15 kts 27°
2026-05-05 08:11 69.30918 16.12932 17 ft 16 kts 323°
2026-05-05 08:12 69.30960 16.12667 17 ft 13 kts 267°
2026-05-05 08:12 69.30994 16.12543 16 ft 9 kts 338°
2026-05-05 08:12 69.31006 16.12530 16 ft 0 kts 338°